{"data":{"norad_id":58422,"epoch":"2026-09-20T23:20:02.989248Z","epoch_age_seconds":106198,"freshness":"FRESH","line1":"1 58422U 23180W   26263.97225682 -.00000019  00000+0  88357-5 0  9991","line2":"2 58422  43.0027 247.4479 0001424 271.1782  88.8906 15.27576182159160","mean_motion":15.27576182,"eccentricity":0.0001424,"inclination_deg":43.0027,"raan_deg":247.4479,"arg_perigee_deg":271.1782,"mean_anomaly_deg":88.8906,"bstar":8.8357e-6,"rev_number":15916,"period_min":94.266984322488,"perigee_km":482.08349400092,"apogee_km":484.03756305705,"semimajor_km":6861.197528529,"source":"CELESTRAK","updated_at":"2026-09-21T09:00:33.874276Z"}}